Torna al catalogo

FENGYUN 1C DEB

AttivoSSO
NORAD 31018·DEBRIS·🇨🇳 China

Lanciato May 10, 1999 da Taiyuan Satellite Launch Center

Loading…

Prossimi Passaggi (prossime 24 ore)

TLE

AggiornatoSource: Space-Track

Epoca: Sep 11, 2026, 05:16 UTC

1 31018U 99025BDL 26254.21961263  .00001774  00000-0  86579-3 0  9994
2 31018  99.0209 350.2140 0057876  71.3106 289.4339 14.18489168999162

Traccia FENGYUN 1C DEB in tempo reale con AllMySat

Download on the App Store